Belmullet Aerodrome


Codes: EIBT/BLY
Name: Belmullet Aerodrome
City: Belmullet
Country: Ireland
Elevation: 150 ft.
Wikipedia:

Photos at Belmullet Aerodrome


   Photos courtesy of SpottingLog. You can add your own sightings and photos by signing up for a free trial today.



No photos found.

Weather at Belmullet Aerodrome


Time (UTC)DescriptionTempratureWindCloud coverageVisibilityPressureHumidity
23-May-2024 21:00Overcast Clouds11°C13 mph, N99%10000m1021hPa64%
24-May-2024 00:00Overcast Clouds11°C13 mph, NW96%10000m1021hPa65%
24-May-2024 03:00Scattered Clouds11°C11 mph, NW46%10000m1020hPa69%
24-May-2024 06:00Few Clouds10°C7 mph, NW22%10000m1018hPa70%
24-May-2024 09:00Scattered Clouds11°C4 mph, NW25%10000m1018hPa68%
24-May-2024 12:00Few Clouds11°C7 mph, NW15%10000m1018hPa69%
24-May-2024 15:00Clear Sky11°C9 mph, SW0%10000m1017hPa66%
24-May-2024 18:00Clear Sky12°C9 mph, SW0%10000m1016hPa66%
24-May-2024 21:00Clear Sky11°C4 mph, SE2%10000m1016hPa73%
25-May-2024 00:00Clear Sky10°C7 mph, SE1%10000m1015hPa81%
25-May-2024 03:00Clear Sky10°C9 mph, SE3%10000m1013hPa79%
25-May-2024 06:00Clear Sky9°C9 mph, SE9%10000m1012hPa83%
25-May-2024 09:00Overcast Clouds12°C16 mph, SE99%10000m1011hPa74%
25-May-2024 12:00Light Rain12°C18 mph, SE99%10000m1010hPa83%
25-May-2024 15:00Light Rain12°C18 mph, SE100%10000m1009hPa82%
25-May-2024 18:00Light Rain11°C25 mph, SE100%10000m1007hPa86%
25-May-2024 21:00Light Rain11°C22 mph, SE100%10000m1006hPa87%
26-May-2024 00:00Light Rain11°C18 mph, SE100%10000m1005hPa86%
26-May-2024 03:00Light Rain10°C11 mph, SE100%10000m1005hPa89%
26-May-2024 06:00Overcast Clouds10°C7 mph, SE100%10000m1005hPa91%
26-May-2024 09:00Light Rain13°C11 mph, SW99%10000m1005hPa86%
26-May-2024 12:00Light Rain12°C13 mph, SW99%10000m1006hPa85%
26-May-2024 15:00Light Rain12°C13 mph, SW42%10000m1006hPa81%
26-May-2024 18:00Light Rain12°C16 mph, W41%10000m1007hPa80%
26-May-2024 21:00Overcast Clouds12°C11 mph, SW99%10000m1008hPa76%
27-May-2024 00:00Overcast Clouds12°C9 mph, SW99%10000m1009hPa77%
27-May-2024 03:00Broken Clouds11°C7 mph, SW61%10000m1010hPa80%
27-May-2024 06:00Broken Clouds11°C7 mph, SW67%10000m1011hPa79%
27-May-2024 09:00Scattered Clouds12°C9 mph, SW26%10000m1012hPa78%
27-May-2024 12:00Few Clouds12°C11 mph, SW17%10000m1012hPa78%
27-May-2024 15:00Clear Sky12°C13 mph, SW6%10000m1013hPa78%
27-May-2024 18:00Broken Clouds13°C13 mph, SW52%10000m1012hPa80%
27-May-2024 21:00Overcast Clouds12°C13 mph, S100%10000m1011hPa83%
28-May-2024 00:00Light Rain12°C16 mph, SE100%10000m1008hPa84%
28-May-2024 03:00Moderate Rain12°C18 mph, SE100%10000m1005hPa91%
28-May-2024 06:00Light Rain12°C16 mph, S100%10000m1004hPa96%
28-May-2024 09:00Moderate Rain13°C16 mph, SW100%10000m1004hPa97%
28-May-2024 12:00Light Rain13°C13 mph, SW100%10000m1004hPa93%
28-May-2024 15:00Light Rain13°C18 mph, SW100%10000m1004hPa94%
28-May-2024 18:00Light Rain12°C16 mph, SW100%10000m1005hPa93%